Location: Unspecified
(43.4680°N, 87.1740°E)
Time: 20:20:10
(UTC+00:00)

USA 234 - Pass Details

Date: 17 April 2021
Orbit: 1102 x 1105 km, 123.0° (Epoch: 18 April)

Event Time Altitude Azimuth Distance (km) Brightness Sun altitude
Rises 21:39:44 0° 49° (NE) 3,927 7.9 -17.9°
Reaches altitude 10° 21:42:20 10° 43° (NE) 2,967 6.8 -17.5°
Maximum altitude 21:48:26 43° 335° (NNW) 1,501 4.0 -16.6°
Enters shadow 21:53:19 16° 271° (W) 2,542 4.7 -15.9°
